This is the latest recevied weather packets stored in our database for station/object PA2JOK. If no packets are shown the sender has not sent any weather packets the latest 10 day(s).
| Time | Temp. | Humidity | Pressure | Rain* | Wind** | Luminosity | Snow |
|---|---|---|---|---|---|---|---|
| 1777640582 | 21.11° C | 23% | 1021.1 hPa | 0 mm | - | - | - |
| 1777639683 | 21.11° C | 24% | 1021.3 hPa | 0 mm | - | - | - |
| 1777638783 | 21.11° C | 23% | 1021.4 hPa | 0 mm | - | - | - |
| 1777637883 | 20.56° C | 23% | 1021.7 hPa | 0 mm | - | - | - |
| 1777636983 | 20.56° C | 22% | 1021.7 hPa | 0 mm | - | - | - |
| 1777636083 | 20.56° C | 23% | 1021.9 hPa | 0 mm | - | - | - |
| 1777635183 | 20° C | 23% | 1022 hPa | 0 mm | - | - | - |
| 1777634283 | 20° C | 24% | 1022.1 hPa | 0 mm | - | - | - |
| 1777633383 | 20° C | 24% | 1022.2 hPa | 0 mm | - | - | - |
| 1777632483 | 20° C | 25% | 1022.2 hPa | 0 mm | - | - | - |
| 1777631583 | 18.89° C | 25% | 1022.4 hPa | 0 mm | - | - | - |
| 1777630683 | 18.89° C | 25% | 1022.5 hPa | 0 mm | - | - | - |
| 1777629783 | 18.89° C | 26% | 1022.9 hPa | 0 mm | - | - | - |
| 1777628883 | 17.78° C | 27% | 1022.9 hPa | 0 mm | - | - | - |
| 1777627983 | 17.78° C | 27% | 1023.1 hPa | 0 mm | - | - | - |
| 1777627083 | 17.22° C | 28% | 1023 hPa | 0 mm | - | - | - |
| 1777626183 | 17.22° C | 29% | 1023.2 hPa | 0 mm | - | - | - |
| 1777625283 | 16.11° C | 31% | 1023.4 hPa | 0 mm | - | - | - |
| 1777624383 | 16.11° C | 33% | 1023.4 hPa | 0 mm | - | - | - |
| 1777623482 | 15.56° C | 34% | 1023.3 hPa | 0 mm | - | - | - |
| 1777622583 | 15.56° C | 34% | 1023.5 hPa | 0 mm | - | - | - |
| 1777621683 | 15° C | 37% | 1023.5 hPa | 0 mm | - | - | - |
| 1777620783 | 14.44° C | 38% | 1023.4 hPa | 0 mm | - | - | - |
| 1777619882 | 13.89° C | 41% | 1023.4 hPa | 0 mm | - | - | - |
| 1777618982 | 13.33° C | 43% | 1023.5 hPa | 0 mm | - | - | - |
* Rain latest hour (hover to see other rain measurements)
** Current wind speed in m/s (hover to see current wind gust speed)